TimePST,TemperatureF,Dew PointF,Humidity,Sea Level PressureIn,VisibilityMPH,Wind Direction,Wind SpeedMPH,Gust SpeedMPH,PrecipitationIn,Events,Conditions,WindDirDegrees,DateUTC
12:53 AM,26.1,24.1,92,30.16,10.0,Calm,Calm,-,N/A,,Clear,0,2014-01-03 08:53:00
1:53 AM,23.0,21.0,92,30.16,10.0,Calm,Calm,-,N/A,,Clear,0,2014-01-03 09:53:00
2:53 AM,24.1,21.9,91,30.16,10.0,Calm,Calm,-,N/A,,Mostly Cloudy,0,2014-01-03 10:53:00
3:53 AM,23.0,21.0,92,30.15,10.0,Calm,Calm,-,N/A,,Scattered Clouds,0,2014-01-03 11:53:00
4:53 AM,24.1,21.0,88,30.16,10.0,WSW,3.5,-,N/A,,Overcast,250,2014-01-03 12:53:00
5:53 AM,21.0,19.0,92,30.18,10.0,Calm,Calm,-,N/A,,Clear,0,2014-01-03 13:53:00
6:53 AM,19.9,18.0,92,30.20,10.0,Calm,Calm,-,N/A,,Clear,0,2014-01-03 14:53:00
7:53 AM,21.0,18.0,88,30.20,10.0,East,3.5,-,N/A,,Clear,90,2014-01-03 15:53:00
8:53 AM,27.0,23.0,85,30.20,10.0,SSE,3.5,-,N/A,,Partly Cloudy,160,2014-01-03 16:53:00
9:53 AM,33.1,26.1,75,30.20,10.0,SE,5.8,-,N/A,,Partly Cloudy,140,2014-01-03 17:53:00
10:53 AM,41.0,28.0,60,30.17,10.0,Calm,Calm,-,N/A,,Clear,0,2014-01-03 18:53:00
11:53 AM,46.0,28.0,50,30.11,10.0,South,3.5,-,N/A,,Clear,190,2014-01-03 19:53:00
12:53 PM,51.1,28.9,43,30.07,10.0,WSW,4.6,-,N/A,,Clear,250,2014-01-03 20:53:00
1:53 PM,54.0,30.0,40,30.04,10.0,West,9.2,-,N/A,,Clear,260,2014-01-03 21:53:00
2:53 PM,53.1,27.0,37,30.05,10.0,NNW,12.7,-,N/A,,Clear,330,2014-01-03 22:53:00
3:53 PM,50.0,28.9,44,30.06,10.0,NNW,10.4,-,N/A,,Clear,330,2014-01-03 23:53:00
4:53 PM,41.0,28.0,60,30.09,10.0,NW,6.9,-,N/A,,Clear,320,2014-01-04 00:53:00
5:53 PM,39.0,28.0,65,30.11,10.0,Calm,Calm,-,N/A,,Clear,0,2014-01-04 01:53:00
6:53 PM,35.1,28.0,76,30.14,10.0,WNW,9.2,-,N/A,,Clear,300,2014-01-04 02:53:00
7:53 PM,34.0,28.0,79,30.14,10.0,West,10.4,-,N/A,,Clear,280,2014-01-04 03:53:00
8:53 PM,30.9,26.1,82,30.14,10.0,Calm,Calm,-,N/A,,Clear,0,2014-01-04 04:53:00
9:53 PM,32.0,27.0,82,30.13,10.0,NNE,3.5,-,N/A,,Clear,30,2014-01-04 05:53:00
10:53 PM,23.0,21.0,92,30.15,10.0,East,4.6,-,N/A,,Clear,80,2014-01-04 06:53:00
11:53 PM,21.9,19.0,89,30.14,10.0,Calm,Calm,-,N/A,,Clear,0,2014-01-04 07:53:00